Regional Weather Roundup
Issued by NWS

Home | Current Version | Previous Version | Graphics & Text | Print | Product List | Glossary On
Versions: 1 2 3 4 5 6 7 8 9 10 11 12 13 14 15 16 17 18 19 20 21 22 23 24 25 26 27 28 29 30 31 32 33 34 35 36 37 38 39 40 41 42 43 44 45 46 47 48 49 50
000
ASUS45 KTFX 311704
RWRMT
MONTANA HOURLY WEATHER ROUNDUP
NATIONAL WEATHER SERVICE GREAT FALLS MT
1004 AM MST SAT JAN 31 2015

NOTE: "FAIR" INDICATES FEW OR NO CLOUDS BELOW 12000 FEET WITH NO
SIGNIFICANT WEATHER AND/OR OBSTRUCTIONS TO VISIBILITY.

* THESE STATIONS ARE NOT UNDER NWS QUALITY CONTROL. THEY DO NOT
   REPORT WEATHER SUCH AS PRECIPITATION OR FOG.

MTZ001>007-043-311800-
WEST OF THE DIVIDE
CITY           SKY/WX    TMP DP  RH WIND       PRES   REMARKS
KALISPELL      FOG       25  23  92 W6        30.16R VSB 1/2  WCI  18
MISSOULA       FOG       25  21  85 W5        30.16R WCI  19
BUTTE          PTCLDY    25  18  75 CALM      30.04S
MULLAN PASS    HAZE      23  18  81 N7        30.07R VSB 1/2  WCI  15
* ANACONDA     PTSUNNY   28  18  66 S6         N/A   WCI  21
* ESSEX        N/A       23  14  68 E9G22      N/A   WCI  13
* LINCOLN      N/A       14  11  88 NE3        N/A
* LOOKOUT PASS N/A       23  23 100 NE4G10     N/A
* POLSON       N/A       23  22  96 W1         N/A
* RONAN APT    PTCLDY    21  19  92 N/A        N/A
* SEELEY LAKE  N/A        9   5  84 SW1        N/A
* THOMP F APT  SUNNY     18   9  68 S3         N/A
* YAAK HILL    N/A       30  27  89 S1         N/A
$$

MTZ008-052>055-311800-
SOUTHWEST MONTANA
CITY           SKY/WX    TMP DP  RH WIND       PRES   REMARKS
BOZEMAN        PTSUNNY   28  21  75 CALM      30.03S
DILLON         PTCLDY    27  16  63 S6        30.06R WCI  20
* W YELLOWSTON PTSUNNY    4  -1  79 S1         N/A
* THREE FORKS  SUNNY     28  -2  27 N/A        N/A
* BOULDER HILL N/A       25  13  60 VRB9G14    N/A   WCI  16
* MONIDA PASS  N/A       12   8  84 W4         N/A
* RAYNOLDS PAS N/A       14  -7  38 SE11       N/A   WCI   1
* WHITEHALL    N/A       27  19  72 NW5G10     N/A   WCI  21
* WISE RIVER   N/A       11   5  77 W7         N/A
$$

MTZ009>010-012-014-046-048-049-054-311800-
EAST SLOPES AND CENTRAL MONTANA
CITY           SKY/WX    TMP DP  RH WIND       PRES   REMARKS
CUT BANK       LGT SNOW  10   7  88 N18       30.25R WCI  -8
GREAT FALLS    LGT SNOW  19  16  88 N25G33    30.18R VSB M1/4 WCI   1
HELENA         CLOUDY    30  25  82 N14       30.11R WCI  19
MALMSTROM AFB  LGT SNOW  19  18  96 NW22      30.21R VSB 3    WCI   2
* DEARBORN     N/A       27  22  81 N/A        N/A
* EAST GLACIER N/A       13   6  73 NE15G20    N/A   WCI  -3
* MONARCH      N/A       18  16  92 NW15       N/A   WCI   4
* PENDROY      N/A       13  10  88 VRB26G40    N/A   WCI  -7
* ROGERS PASS  N/A       19  17  92 SE5G11     N/A   WCI  12
* SWEET GRASS  N/A        9   8  96 VRB22G28    N/A   WCI -11
$$

MTZ011-013-016-021-035-040-045-047-050-051-311800-
NORTH CENTRAL MONTANA
CITY           SKY/WX    TMP DP  RH WIND       PRES   REMARKS
HAVRE          SNOW      16  12  84 NE15      30.23R VSB 1/2  WCI   1
LEWISTOWN      LGT SNOW  27  23  85 NW12G20   30.06R VSB 3/4  WCI  16
* N BAR RANCH  CLOUDY    25  23  92 NW21G26   30.01R WCI  10
* CHESTER      N/A       15  11  84 NE15G22    N/A
* DENTON       N/A       26  24  92 NW16G24    N/A   WCI  13
* GEYSER       N/A       22  21  96 W20G27     N/A   WCI   7
* JUDITH GAP   N/A       24  24 100 VRB20      N/A   WCI   9
* LOMA         N/A       20  17  88 N22G27     N/A   WCI   4
$$

MTZ017>020-022>027-061-062-311800-
NORTHEAST MONTANA
CITY           SKY/WX    TMP DP  RH WIND       PRES   REMARKS
GLASGOW        SNOW      18  12  77 E18G32    30.16R VSB 1/2  WCI   2
GLENDIVE       CLOUDY    21  19  92 E21       30.11R WCI   5
JORDAN         CLOUDY    25  21  85 NE13      30.07R WCI  13
SIDNEY         CLOUDY    18  12  77 NE17G24   30.23R WCI   3
WOLF POINT     HVY SNOW  18  12  77 NE26G32   30.21R VSB M1/4
* BEAVER HILL  N/A       19  17  92 E16        N/A   WCI   4
* CIRCLE       N/A       23  22  96 NE14G20    N/A   WCI  10
* LINDSAY DVD  N/A       20  19  96 E17G25     N/A   WCI   5
* NAVAJO       N/A        7   4  87 NE17G22    N/A   WCI -11
* SACO         N/A       18  13  81 N19G27     N/A   WCI   2
$$

MTZ028>042-056>058-311800-
SOUTHCENTRAL AND SOUTHEAST MONTANA
CITY           SKY/WX    TMP DP  RH WIND       PRES   REMARKS
BAKER          FOG       21  19  92 E23G29    30.04R VSB 3/4  WCI   5
BILLINGS       CLOUDY    34  19  54 N14       29.98R WCI  24
LIVINGSTON     PTCLDY    39  12  33 W16       29.98R WCI  30
MILES CITY     PTSUNNY   28  27  96 E10       29.99R WCI  19
* LAUREL APT   CLOUDY    30  12  47 N/A        N/A
* ROUNDUP APT  PTSUNNY   27  21  78 N7         N/A   WCI  19
* ALZADA       N/A       25  24  96 E12G17     N/A   WCI  14
* HYSHAM       N/A       27  21  78 W7         N/A   WCI  19
* LAME DEER    N/A       36  20  52 NW11       N/A   WCI  28
* REED POINT   N/A       25  22  88 E4         N/A
$$

REGIONAL REPORTS...DAKOTAS
CITY           SKY/WX    TMP DP  RH WIND       PRES   REMARKS
WILLISTON      LGT SNOW  10   5  80 E18G25    30.28R VSB 2 1/2 WCI  -8
DICKINSON      LGT SNOW  18  14  84 E18       30.14R VSB 1 1/2 WCI   2
CROSBY         LGT SNOW   7   1  76 E20       30.36R VSB 1 3/4 WCI -13
WATFORD CITY   CLOUDY    10   7  88 E18G24    30.23R WCI  -8
BISMARCK       LGT SNOW  12   7  80 E18       30.29R WCI  -5
GRAND FORKS    PTSUNNY    3  -8  60 N21G28    30.47R WCI -18
FARGO          SUNNY     10   0  64 N21G28    30.38R WCI  -9
BUFFALO SD     PTCLDY    21  19  92 E17       29.98R WCI   7
RAPID CITY     FOG       27  27 100 SE10      30.02S VSB 2 1/2 WCI  18
$$

REGIONAL REPORTS...WYOMING/IDAHO/WASHINGTON
CITY           SKY/WX    TMP DP  RH WIND       PRES   REMARKS
GILLETTE       PTCLDY    37  25  62 S15G20    29.89F WCI  28
SHERIDAN       SUNNY     34  23  64 S3        29.93F
CODY           PTSUNNY   34  18  52 S3        29.94R
YELLOWSTONE LA PTSUNNY   -6  -8  91 CALM      30.05R
SALMON         CLOUDY    27  19  72 N5        30.23R WCI  21
MULLAN PASS    HAZE      23  18  81 N7        30.07S VSB 1/2  WCI  15
SAND POINT     CLOUDY    32  28  85 S7        30.25R WCI  25
SPOKANE        CLOUDY    30  28  92 SW5       30.26R WCI  25
$$

REGIONAL REPORTS...ALBERTA
CITY           SKY/WX    TMP DP  RH WIND       PRES   REMARKS
MEDICINE HAT   LGT SNOW   9   5  84 NE16      30.40R VSB 3/4  WCI  -8

$$




USA.gov is the U.S. government's official web portal to all federal, state and local government web resources and services.